Regional Weather Roundup
Issued by NWS

Home | Current Version | Previous Version | Graphics & Text | Print | Product List | Glossary On
Versions: 1 2 3 4 5 6 7 8 9 10 11 12 13 14 15 16 17 18 19 20 21 22 23 24 25 26 27 28 29 30 31 32 33 34 35 36 37 38 39 40 41 42 43 44 45 46 47 48 49 50
000
ASUS43 KDMX 221901
RWRIA

WEATHER ROUNDUP FOR IOWA
NATIONAL WEATHER SERVICE DES MOINES IA
100 PM CST MON JAN 22 2018

NOTE: "FAIR" INDICATES FEW OR NO CLOUDS BELOW 12,000 FEET WITH NO
SIGNIFICANT WEATHER AND/OR OBSTRUCTIONS TO VISIBILITY.

* - THESE STATIONS ARE NOT NWS STATIONS...THUS NOT UNDER NWS
QUALITY CONTROL.  THEY ALSO DO NOT REPORT WEATHER SUCH
AS PRECIPITATION OR FOG.

IAZ001>003-012>014-020>022-031>034-043>046-222000-
   NORTHWEST IOWA

CITY           SKY/WX    TMP DP  RH WIND       PRES   REMARKS
CARROLL *      MIX PCPN  34  34 100 N30G36    29.41S VSB 3/4 WCI  20
DENISON *      LGT RAIN  32  32 100 N31G43    29.44F WCI  17
LE MARS *      SNOW      30  28  93 N29G38    29.57S VSB<1/4 WCI  15
ORANGE CITY *  CLOUDY    28  28 100 N24G39    29.58R WCI  14
SHELDON *      HVY SNOW  28  28 100 N37G46    29.56F VSB<1/4 WCI  11
SIOUX CITY     SNOW      29  28  96 N32G38    29.58R VSB 1/4 WCI  13
SPENCER        FOG       30  28  92 N35G44    29.54F VSB 1/4 WCI  14
STORM LAKE *   SNOW      30  30 100 N36G45    29.48S VSB 1/4 WCI  14
$$

IAZ055>058-069>071-079>083-090>094-222000-
   SOUTHWEST IOWA

CITY           SKY/WX    TMP DP  RH WIND       PRES   REMARKS
ATLANTIC *     MIX PCPN  36  36 100 N22       29.38S WCI  24
AUDUBON *      RAIN      36  34  93 N22G35    29.39F WCI  24
CLARINDA *     CLOUDY    37  37 100 MISG        N/A  FOG
COUNCIL BLFS * MIX PCPN  34  34 100 N20G29    29.42R VSB 3/4 WCI  22
CRESTON *      CLOUDY    37  36  93 S13G22    29.36F WCI  29
HARLAN  *      CLOUDY    34  34 100 N28G36    29.43S WCI  20
LAMONI         CLOUDY    37  34  89 S9        29.38F WCI  30
RED OAK *      MIX PCPN  37  37 100 N16G22    29.38S WCI  28
SHENANDOAH *   MIX PCPN  37  36  93 N16       29.39F WCI  28
$$

IAZ047>049-059>061-072>074-084-222000-
   CENTRAL IOWA

CITY           SKY/WX    TMP DP  RH WIND       PRES   REMARKS
AMES           CLOUDY    38  38 100 NE14      29.37F WCI  30
ANKENY *       CLOUDY    45  41  87 SW12G18   29.37S
BOONE *        CLOUDY    37  37 100 NE12      29.36S FOG     WCI  30
CHARITON *     CLOUDY    39  36  87 S13       29.38F WCI  32
DES MOINES     CLOUDY    42  38  85 S18G24    29.36F
GRINNELL*      MOSUNNY   46  39  76 S20       29.40S
KNOXVILLE *    CLOUDY    43  34  70 S13G20    29.37F
MARSHALLTOWN   CLOUDY    40  40 100 NE15      29.37F WCI  32
NEWTON *       PTSUNNY   45  39  81 S18G26    29.37F
PELLA *        MOSUNNY   45  35  69 S15       29.41F
PERRY *        CLOUDY    40  40  99 N9        29.36F FOG     WCI  34
$$

IAZ004>006-015-016-023>025-035-036-222000-
   NORTH CENTRAL IOWA

CITY           SKY/WX    TMP DP  RH WIND       PRES   REMARKS
ALGONA *       SNOW      32 N/A N/A N32G41    29.48F VSB 1/2 WCI  17
CLARION *      CLOUDY    34  34 100 NE25G32   29.43F WCI  21
ESTHERVILLE    FOG       28  28 100 N35G41    29.54F VSB 1/4 WCI  11
FORT DODGE *   LGT RAIN  33  32  96 N18G29    29.43S FOG     WCI  22
MASON CITY     LGT SNOW  33  33 100 N20       29.49R FOG     WCI  21
FOREST CITY *  LGT SNOW  34  32  93 NE21G28   29.49R WCI  22
WEBSTER CITY * CLOUDY    36  34  93 NE20G28   29.39S WCI  25
IOWA FALLS *   CLOUDY    37  35  95 NE16G24   29.42F WCI  27
$$

IAZ007>011-017>019-026>030-037>042-050>054-066-222000-
   NORTHEAST IOWA

CITY           SKY/WX    TMP DP  RH WIND       PRES   REMARKS
CEDAR RAPIDS     N/A     51  42  71 SW13G23   29.38F
CHARLES CITY * LGT RAIN  34  34 100 NE13G21   29.46R WCI  25
DECORAH *      LGT RAIN  32  32 100 NE14G23   29.43F WCI  22
DUBUQUE        FOG       39  39 100 NE8       29.41F VSB<1/4 WCI  33
MONTICELLO *   CLOUDY    43  43 100 CALM      29.40F
OELWEIN *      CLOUDY    37  37 100 NE17      29.42F WCI  28
WATERLOO       CLOUDY    37  35  92 NE14      29.41F WCI  28
$$

IAZ064-065-067-068-078-222000-
   EAST CENTRAL IOWA

CITY           SKY/WX    TMP DP  RH WIND       PRES   REMARKS
DAVENPORT        N/A     57  41  55 S21G35    29.41F
IOWA CITY        N/A     51  35  54 SW20G26   29.42S
MT. PLEASANT * SUNNY     46  32  57 SW26G37   29.43F
MUSCATINE *      N/A     52  36  54 SW24G33   29.42F
QUAD CITIES    PTSUNNY   56  44  64 SW18G28   29.40F
$$

IAZ062-063-075>077-085>089-095>099-222000-
   SOUTHEAST IOWA

CITY           SKY/WX    TMP DP  RH WIND       PRES   REMARKS
BURLINGTON     SUNNY     52  37  56 SW21G33   29.41F
FAIRFIELD *    MOSUNNY   46  32  57 SW21G29   29.42F
FORT MADISON * SUNNY     50  34  53 S17G31    29.43F
KEOKUK *       MOSUNNY   50  34  53 SW26G37   29.44S
OSKALOOSA *    PTSUNNY   43  34  69 SW16      29.42S
OTTUMWA        PTSUNNY   45  32  60 SW17      29.41F
WASHINGTON *   MOSUNNY   48  36  61 W17G26    29.43S
$$

ABBREVIATIONS USED IN REMARKS
   TC - TEMPERATURES IN CELSIUS
  WCI - WIND CHILL INDEX
   HX - HEAT INDEX
  VSB - VISIBILITY
$$





USA.gov is the U.S. government's official web portal to all federal, state and local government web resources and services.